Location: *
(41.3833°S, 177.8333°W)
Time: 20:50:27
(UTC+00:00)

Cosmos 2195 Rocket - Pass Details

Date: 01 April 2020
Orbit: 948 x 993 km, 82.9° (Epoch: 31 May)

Event Time Altitude Azimuth Distance (km) Brightness Sun altitude
Rises 15:56:00 0° 187° (S) 3,675 7.6 -25.3°
Reaches altitude 10° 15:58:32 10° 186° (S) 2,718 6.9 -24.9°
Maximum altitude 16:04:46 84° 98° (E) 971 4.4 -23.7°
Drops below altitude 10° 16:10:54 10° 8° (N) 2,673 6.7 -22.6°
Sets 16:13:22 0° 7° (N) 3,610 7.4 -22.2°
